Date String (YYYY-MM-DD hh:mm:ss) UTC,Instrument flags,Ambient pressure (hPa),Sample flow (lpm),Bypass flow (lpm),Sample temperature (°C),Ambient temperature (°C),ASC tube jacket temperature (°C),LED temperature (°C),Box temperature (°C),Sample RH (%),Span deviation,Mass concentration (μg/m³),Mass concentration (μg/m³),Mass concentration (μg/m³)
DateTimeUTC,F1_M11,P_M11,Q1_M11,Q2_M11,T1_M11,T2_M11,T3_M11,T4_M11,T5_M11,U1_M11,ZSPAN_M11,X0_M11,X2_M11,X1_M11
2023-04-28 11:00:00,,0833.9,5.00,0.00,22.4,21.3,00.0,30.8,24.0,16.7,0000.0,0003.08,0002.18,0001.80
2023-04-28 11:01:00,,0833.9,4.99,0.00,22.4,21.2,00.0,30.8,24.0,16.7,0000.0,0002.98,0002.13,0001.79
2023-04-28 11:02:00,,0833.9,5.00,0.00,22.4,21.2,00.0,30.8,24.0,16.6,0000.0,0003.01,0002.13,0001.77
2023-04-28 11:03:00,,0833.9,4.99,0.00,22.4,21.2,00.0,30.8,24.0,16.4,0000.0,0003.49,0002.11,0001.77
2023-04-28 11:04:00,,0834.0,5.00,0.00,22.5,21.3,00.0,30.8,24.0,16.4,0000.0,0004.59,0002.06,0001.77
2023-04-28 11:05:00,,0833.9,5.00,0.00,22.5,21.3,00.0,30.8,24.0,16.4,0000.0,0004.55,0002.05,0001.78
2023-04-28 11:06:00,,0834.0,4.99,0.00,22.5,21.2,00.0,30.8,24.0,16.4,0000.0,0004.61,0002.04,0001.77
2023-04-28 11:07:00,,0833.9,5.00,0.00,22.5,21.2,00.0,30.8,24.0,16.4,0000.0,0004.63,0002.07,0001.77
2023-04-28 11:08:00,,0833.9,5.00,0.00,22.5,21.2,00.0,30.8,24.0,16.3,0000.0,0004.70,0002.11,0001.78
2023-04-28 11:09:00,,0834.0,5.00,0.00,22.5,21.2,00.0,30.9,24.1,16.2,0000.0,0004.62,0002.09,0001.80
2023-04-28 11:10:00,,0834.0,5.00,0.00,22.5,21.2,00.0,30.9,24.1,16.2,0000.0,0004.60,0002.08,0001.80
2023-04-28 11:11:00,,0834.0,5.01,0.00,22.5,21.2,00.0,30.9,24.0,16.2,0000.0,0004.61,0002.08,0001.80
2023-04-28 11:12:00,,0833.9,5.00,0.00,22.5,21.2,00.0,30.9,24.0,16.2,0000.0,0004.65,0002.10,0001.81
2023-04-28 11:13:00,,0834.0,5.00,0.00,22.5,21.2,00.0,30.9,24.0,16.4,0000.0,0004.65,0002.11,0001.81
2023-04-28 11:14:00,,0834.0,5.00,0.00,22.5,21.2,00.0,30.9,24.0,16.4,0000.0,0004.30,0002.09,0001.80
2023-04-28 11:15:00,,0834.0,4.99,0.00,22.5,21.1,00.0,30.9,24.0,16.5,0000.0,0002.89,0002.10,0001.80
2023-04-28 11:16:00,,0834.0,4.99,0.00,22.5,21.0,00.0,30.9,24.0,16.6,0000.0,0002.88,0002.08,0001.79
2023-04-28 11:17:00,,0834.0,5.02,0.00,22.4,21.0,00.0,30.8,23.9,16.7,0000.0,0002.80,0002.07,0001.79
2023-04-28 11:18:00,,0834.1,5.00,0.00,22.4,20.9,00.0,30.8,23.9,16.7,0000.0,0002.68,0002.04,0001.80
2023-04-28 11:19:00,,0834.0,4.99,0.00,22.4,20.9,00.0,30.8,23.9,16.8,0000.0,0002.68,0002.03,0001.80
2023-04-28 11:20:00,,0834.0,5.00,0.00,22.4,20.8,00.0,30.8,23.9,16.8,0000.0,0002.76,0002.05,0001.78
2023-04-28 11:21:00,,0834.0,4.99,0.00,22.4,20.8,00.0,30.8,23.8,16.7,0000.0,0002.84,0002.07,0001.77
2023-04-28 11:22:00,,0834.1,4.99,0.00,22.4,20.8,00.0,30.8,23.8,16.7,0000.0,0002.83,0002.07,0001.78
2023-04-28 11:23:00,,0834.1,5.00,0.00,22.3,20.7,00.0,30.8,23.8,16.6,0000.0,0002.89,0002.10,0001.78
2023-04-28 11:24:00,,0834.0,5.00,0.00,22.3,20.7,00.0,30.8,23.8,16.6,0000.0,0002.91,0002.12,0001.79
2023-04-28 11:25:00,,0834.1,5.01,0.00,22.3,20.7,00.0,30.8,23.7,16.6,0000.0,0002.95,0002.15,0001.81
2023-04-28 11:26:00,,0834.0,5.00,0.00,22.3,20.6,00.0,30.8,23.7,16.6,0000.0,0002.88,0002.13,0001.81
2023-04-28 11:27:00,,0834.0,5.00,0.00,22.2,20.6,00.0,30.7,23.7,16.5,0000.0,0002.76,0002.13,0001.81
2023-04-28 11:28:00,,0834.0,5.00,0.00,22.2,20.6,00.0,30.7,23.7,16.5,0000.0,0002.89,0002.19,0001.83
2023-04-28 11:29:00,,0834.0,5.00,0.00,22.2,20.5,00.0,30.7,23.6,16.5,0000.0,0002.93,0002.21,0001.83
2023-04-28 11:30:00,,0834.0,5.00,0.00,22.2,20.5,00.0,30.7,23.6,16.5,0000.0,0002.96,0002.22,0001.83
2023-04-28 11:31:00,,0834.0,4.99,0.00,22.2,20.5,00.0,30.7,23.6,16.5,0000.0,0002.96,0002.22,0001.84
2023-04-28 11:32:00,,0834.0,5.01,0.00,22.2,20.4,00.0,30.7,23.6,16.6,0000.0,0002.98,0002.22,0001.85
2023-04-28 11:33:00,,0834.0,4.99,0.00,22.1,20.3,00.0,30.6,23.5,16.8,0000.0,0003.07,0002.26,0001.85
2023-04-28 11:34:00,,0834.0,4.99,0.00,22.1,20.2,00.0,30.6,23.4,16.9,0000.0,0003.08,0002.26,0001.86
2023-04-28 11:35:00,,0834.1,5.00,0.00,22.0,20.2,00.0,30.6,23.4,16.9,0000.0,0003.13,0002.27,0001.85
2023-04-28 11:36:00,,0834.0,4.99,0.00,22.0,20.1,00.0,30.6,23.3,17.1,0000.0,0003.18,0002.27,0001.85
2023-04-28 11:37:00,,0834.0,5.00,0.00,21.9,20.1,00.0,30.5,23.3,17.4,0000.0,0003.26,0002.30,0001.84
2023-04-28 11:38:00,,0834.0,5.01,0.00,21.9,20.2,00.0,30.5,23.4,17.4,0000.0,0003.27,0002.27,0001.82
2023-04-28 11:39:00,,0834.1,5.01,0.00,22.0,20.9,00.0,30.4,23.7,17.5,0000.0,0003.37,0002.25,0001.79
2023-04-28 11:40:00,,0834.1,4.99,0.00,22.1,22.0,00.0,30.4,24.1,17.9,0000.0,0003.46,0002.22,0001.74
2023-04-28 11:41:00,,0834.1,5.00,0.00,22.3,22.9,00.0,30.4,24.4,18.2,0000.0,0003.36,0002.15,0001.70
2023-04-28 11:42:00,,0834.1,5.00,0.00,22.3,22.8,00.0,30.5,24.2,18.3,0000.0,0003.95,0002.08,0001.63
2023-04-28 11:43:00,,0834.1,4.99,0.00,22.3,22.3,00.0,30.6,24.0,18.4,0000.0,0004.15,0002.00,0001.58
2023-04-28 11:44:00,,0834.1,5.01,0.00,22.3,21.9,00.0,30.6,23.9,18.7,0000.0,0004.24,0001.89,0001.52
2023-04-28 11:45:00,,0834.1,5.00,0.00,22.2,21.5,00.0,30.6,23.8,18.7,0000.0,0004.09,0001.80,0001.46
2023-04-28 11:46:00,,0834.1,5.00,0.00,22.2,21.2,00.0,30.6,23.7,18.7,0000.0,0003.99,0001.73,0001.41
2023-04-28 11:47:00,,0834.1,5.00,0.00,22.1,21.0,00.0,30.6,23.6,18.6,0000.0,0003.97,0001.69,0001.39
2023-04-28 11:48:00,,0834.1,5.00,0.00,22.1,20.8,00.0,30.6,23.6,18.8,0000.0,0003.87,0001.64,0001.36
2023-04-28 11:49:00,,0834.1,5.01,0.00,22.1,20.6,00.0,30.6,23.5,18.9,0000.0,0003.80,0001.59,0001.32
2023-04-28 11:50:00,,0834.1,5.00,0.00,22.0,20.5,00.0,30.6,23.4,18.9,0000.0,0003.60,0001.54,0001.30
2023-04-28 11:51:00,,0834.0,4.99,0.00,22.0,20.4,00.0,30.5,23.4,19.0,0000.0,0003.48,0001.52,0001.29
2023-04-28 11:52:00,,0834.1,5.00,0.00,21.9,20.3,00.0,30.5,23.3,19.1,0000.0,0003.92,0001.52,0001.29
2023-04-28 11:53:00,,0834.1,5.00,0.00,21.9,20.1,00.0,30.5,23.3,18.8,0000.0,0003.91,0001.53,0001.31
2023-04-28 11:54:00,,0834.1,5.00,0.00,21.8,20.0,00.0,30.5,23.2,18.6,0000.0,0003.55,0001.58,0001.35
2023-04-28 11:55:00,,0834.1,5.00,0.00,21.8,19.9,00.0,30.5,23.2,18.7,0000.0,0003.33,0001.61,0001.37
2023-04-28 11:56:00,,0834.1,5.01,0.00,21.7,19.8,00.0,30.4,23.1,18.7,0000.0,0003.32,0001.64,0001.39
2023-04-28 11:57:00,,0834.1,5.01,0.00,21.7,19.8,00.0,30.4,23.1,18.9,0000.0,0003.32,0001.65,0001.40
2023-04-28 11:58:00,,0834.1,5.00,0.00,21.6,19.7,00.0,30.4,23.0,19.1,0000.0,0003.16,0001.62,0001.40
2023-04-28 11:59:00,,0834.1,5.00,0.00,21.6,19.7,00.0,30.3,23.1,19.2,0000.0,0003.06,0001.58,0001.39
